| time (UTC) | temp F | wind direction | speed knots | gust knots | rain 1hr in | rain 24hr in | rain mn in | humidity % | barometer mb |
| 20260506202526 | 54 | 266 | 0.0 | 0.0 | 0.00 | 0.00 | 0.00 | 98 | 1005.5 |
| 20260506202022 | 54 | 266 | 0.0 | 0.9 | 0.00 | 0.00 | 0.00 | 98 | 1005.4 |
| 20260506201520 | 54 | 289 | 0.0 | 0.9 | 0.00 | 0.00 | 0.00 | 98 | 1005.4 |
| 20260506201016 | 54 | 269 | 0.0 | 0.0 | 0.00 | 0.00 | 0.00 | 98 | 1005.5 |
| 20260506200512 | 54 | 283 | 0.0 | 0.0 | 0.00 | 0.00 | 0.00 | 98 | 1005.4 |
| 20260506200009 | 54 | 282 | 0.0 | 0.9 | 0.00 | 0.00 | 0.00 | 98 | 1005.5 |
| 20260506195506 | 55 | 236 | 1.7 | 1.7 | 0.00 | 0.00 | 0.00 | 97 | 1005.5 |
| 20260506195002 | 55 | 312 | 0.0 | 0.0 | 0.00 | 0.00 | 0.00 | 97 | 1005.5 |
| 20260506194500 | 55 | 269 | 0.0 | 0.0 | 0.00 | 0.00 | 0.00 | 97 | 1005.5 |
| 20260506193956 | 56 | 239 | 0.0 | 0.9 | 0.00 | 0.00 | 0.00 | 97 | 1005.3 |
| 20260506193454 | 56 | 209 | 1.7 | 1.7 | 0.00 | 0.00 | 0.00 | 97 | 1005.3 |
| 20260506192950 | 57 | 318 | 0.9 | 0.9 | 0.00 | 0.00 | 0.00 | 98 | 1005.3 |
| 20260506192447 | 57 | 247 | 0.9 | 0.9 | 0.00 | 0.00 | 0.00 | 98 | 1005.4 |
| 20260506191943 | 57 | 258 | 0.0 | 0.9 | 0.00 | 0.00 | 0.00 | 98 | 1005.3 |
| 20260506191441 | 57 | 222 | 0.9 | 0.9 | 0.00 | 0.00 | 0.00 | 98 | 1005.2 |
| 20260506190937 | 58 | 270 | 0.0 | 0.9 | 0.00 | 0.00 | 0.00 | 98 | 1005.4 |
| 20260506190434 | 58 | 203 | 0.9 | 1.7 | 0.00 | 0.00 | 0.00 | 98 | 1005.3 |
| 20260506185931 | 58 | 274 | 0.0 | 0.9 | 0.00 | 0.00 | 0.00 | 98 | 1005.3 |
| 20260506185428 | 58 | 274 | 0.9 | 0.9 | 0.00 | 0.00 | 0.00 | 98 | 1005.2 |
| 20260506184925 | 58 | 229 | 0.0 | 0.0 | 0.00 | 0.00 | 0.00 | 98 | 1005.1 |
| 20260506184421 | 58 | 229 | 0.0 | 0.0 | 0.00 | 0.00 | 0.00 | 98 | 1005.1 |
| 20260506183919 | 57 | 229 | 0.0 | 0.0 | 0.00 | 0.00 | 0.00 | 98 | 1005.2 |
| 20260506183414 | 57 | 229 | 0.0 | 0.0 | 0.00 | 0.00 | 0.00 | 98 | 1005.3 |
| 20260506182912 | 57 | 229 | 0.9 | 0.9 | 0.00 | 0.00 | 0.00 | 98 | 1005.2 |
| 20260506182409 | 57 | 229 | 0.0 | 0.0 | 0.00 | 0.00 | 0.00 | 98 | 1005.1 |
| 20260506181906 | 57 | 229 | 0.0 | 0.0 | 0.00 | 0.00 | 0.00 | 98 | 1005.3 |
| 20260506181404 | 57 | 229 | 0.0 | 0.9 | 0.00 | 0.00 | 0.00 | 98 | 1005.4 |
| 20260506180901 | 57 | 229 | 0.0 | 0.0 | 0.00 | 0.00 | 0.00 | 98 | 1005.4 |
| 20260506180356 | 57 | 229 | 0.0 | 0.0 | 0.00 | 0.00 | 0.00 | 98 | 1005.7 |
| 20260506175853 | 57 | 229 | 0.0 | 0.0 | 0.00 | 0.00 | 0.00 | 98 | 1005.6 |
| 20260506175350 | 57 | 229 | 0.0 | 0.0 | 0.00 | 0.00 | 0.00 | 98 | 1005.7 |
| 20260506174847 | 57 | 229 | 0.0 | 0.0 | 0.00 | 0.00 | 0.00 | 98 | 1005.6 |
| 20260506174345 | 57 | 229 | 0.9 | 0.9 | 0.00 | 0.00 | 0.00 | 98 | 1005.6 |
| 20260506173842 | 57 | 235 | 0.0 | 0.0 | 0.00 | 0.00 | 0.00 | 98 | 1005.5 |
| 20260506173338 | 57 | 235 | 0.9 | 0.9 | 0.00 | 0.00 | 0.00 | 98 | 1005.6 |
| 20260506172836 | 57 | 235 | 0.0 | 0.9 | 0.00 | 0.00 | 0.00 | 98 | 1005.5 |
| 20260506172332 | 56 | 235 | 0.9 | 0.9 | 0.00 | 0.00 | 0.00 | 98 | 1005.7 |
| 20260506171830 | 56 | 236 | 0.0 | 0.0 | 0.00 | 0.00 | 0.00 | 98 | 1005.7 |
| 20260506171327 | 56 | 236 | 0.0 | 0.0 | 0.00 | 0.00 | 0.00 | 98 | 1005.9 |
| 20260506170825 | 56 | 256 | 0.0 | 0.0 | 0.00 | 0.00 | 0.00 | 98 | 1005.7 |
| 20260506170320 | 56 | 270 | 0.0 | 0.9 | 0.00 | 0.00 | 0.00 | 98 | 1005.9 |
| 20260506165820 | 56 | 271 | 0.0 | 0.9 | 0.00 | 0.00 | 0.00 | 98 | 1005.7 |
| 20260506165317 | 56 | 233 | 0.0 | 0.0 | 0.00 | 0.00 | 0.00 | 98 | 1005.7 |
| 20260506164813 | 56 | 294 | 0.9 | 0.9 | 0.00 | 0.00 | 0.00 | 98 | 1006.0 |
| 20260506164310 | 56 | 310 | 0.9 | 0.9 | 0.00 | 0.00 | 0.00 | 98 | 1006.0 |
| 20260506163807 | 56 | 236 | 0.0 | 0.0 | 0.00 | 0.00 | 0.00 | 98 | 1005.9 |
| 20260506163301 | 56 | 280 | 0.0 | 0.0 | 0.00 | 0.00 | 0.00 | 98 | 1006.1 |
| 20260506162757 | 56 | 281 | 0.0 | 0.0 | 0.00 | 0.00 | 0.00 | 98 | 1006.3 |
| 20260506162256 | 56 | 271 | 0.9 | 0.9 | 0.00 | 0.00 | 0.00 | 98 | 1005.9 |
| 20260506161753 | 56 | 318 | 0.0 | 1.7 | 0.00 | 0.00 | 0.00 | 98 | 1006.0 |
| 20260506161250 | 56 | 300 | 0.0 | 0.0 | 0.00 | 0.00 | 0.00 | 98 | 1006.2 |
| 20260506160748 | 56 | 300 | 0.9 | 0.9 | 0.00 | 0.00 | 0.00 | 98 | 1006.0 |
| 20260506160244 | 55 | 210 | 0.9 | 1.7 | 0.00 | 0.00 | 0.00 | 98 | 1006.1 |
| 20260506155743 | 55 | 323 | 0.9 | 0.9 | 0.00 | 0.00 | 0.00 | 98 | 1006.1 |
| 20260506155239 | 55 | 179 | 1.7 | 1.7 | 0.00 | 0.00 | 0.00 | 98 | 1006.2 |
| 20260506153346 | 55 | 230 | 0.9 | 0.9 | 0.00 | 0.00 | 0.00 | 98 | 1006.5 |
| 20260506152843 | 55 | 231 | 0.0 | 0.0 | 0.00 | 0.00 | 0.00 | 98 | 1006.5 |
| 20260506152340 | 55 | 231 | 0.0 | 0.0 | 0.00 | 0.00 | 0.00 | 98 | 1006.5 |
| 20260506151839 | 54 | 231 | 0.9 | 0.9 | 0.00 | 0.00 | 0.00 | 98 | 1006.6 |
| 20260506151335 | 54 | 231 | 0.9 | 0.9 | 0.00 | 0.00 | 0.00 | 98 | 1006.6 |
| 20260506150832 | 54 | 231 | 0.9 | 0.9 | 0.00 | 0.00 | 0.00 | 98 | 1006.8 |
| 20260506150329 | 54 | 231 | 0.9 | 0.9 | 0.00 | 0.00 | 0.00 | 98 | 1006.9 |
| 20260506145826 | 54 | 0 | 0.0 | 0.0 | 0.00 | 0.00 | 0.00 | 98 | 1006.8 |
| 20260506145322 | 54 | 0 | 0.0 | 0.0 | 0.00 | 0.00 | 0.00 | 98 | 1007.1 |
| 20260506144820 | 54 | 0 | 0.0 | 0.0 | 0.00 | 0.00 | 0.00 | 98 | 1007.4 |
| 20260506144316 | 54 | 359 | 0.0 | 0.0 | 0.00 | 0.00 | 0.00 | 98 | 1007.0 |
| 20260506143815 | 54 | 355 | 0.0 | 0.0 | 0.00 | 0.00 | 0.00 | 98 | 1007.2 |
| 20260506143311 | 55 | 346 | 0.0 | 0.0 | 0.00 | 0.00 | 0.00 | 98 | 1007.4 |
| 20260506142810 | 55 | 346 | 0.0 | 0.0 | 0.00 | 0.00 | 0.00 | 98 | 1007.3 |
| 20260506142307 | 54 | 346 | 0.0 | 0.0 | 0.00 | 0.00 | 0.00 | 98 | 1007.5 |
| 20260506141805 | 54 | 346 | 0.0 | 0.0 | 0.00 | 0.00 | 0.00 | 98 | 1007.3 |
| 20260506141303 | 54 | 345 | 0.0 | 0.0 | 0.00 | 0.00 | 0.00 | 99 | 1007.3 |
| 20260506140801 | 54 | 345 | 0.0 | 0.0 | 0.00 | 0.00 | 0.00 | 99 | 1007.4 |
| 20260506140257 | 54 | 342 | 0.0 | 0.0 | 0.00 | 0.00 | 0.00 | 99 | 1007.6 |
| 20260506135755 | 54 | 342 | 0.0 | 0.0 | 0.00 | 0.00 | 0.00 | 99 | 1007.7 |
| 20260506135251 | 54 | 339 | 0.0 | 0.0 | 0.00 | 0.00 | 0.00 | 99 | 1007.5 |
| 20260506134748 | 54 | 339 | 0.0 | 0.0 | 0.00 | 0.00 | 0.00 | 99 | 1007.6 |
| 20260506134244 | 54 | 339 | 0.0 | 0.0 | 0.00 | 0.00 | 0.00 | 99 | 1007.5 |
| 20260506133741 | 54 | 339 | 0.0 | 0.0 | 0.00 | 0.00 | 0.00 | 99 | 1007.4 |
| 20260506133238 | 54 | 339 | 0.9 | 0.9 | 0.00 | 0.00 | 0.00 | 99 | 1007.3 |
| 20260506132735 | 54 | 339 | 0.0 | 0.9 | 0.00 | 0.00 | 0.00 | 99 | 1007.3 |
| 20260506132232 | 54 | 332 | 0.0 | 0.9 | 0.00 | 0.00 | 0.00 | 99 | 1007.2 |
| 20260506131730 | 53 | 332 | 0.0 | 0.9 | 0.00 | 0.00 | 0.00 | 99 | 1007.1 |
| 20260506131225 | 53 | 309 | 0.0 | 0.9 | 0.00 | 0.00 | 0.00 | 99 | 1007.1 |
| 20260506130723 | 53 | 256 | 0.0 | 0.0 | 0.00 | 0.00 | 0.00 | 99 | 1007.4 |
| 20260506130219 | 53 | 256 | 0.0 | 0.0 | 0.00 | 0.00 | 0.00 | 99 | 1007.4 |
| 20260506125718 | 52 | 256 | 0.0 | 0.0 | 0.00 | 0.00 | 0.00 | 99 | 1007.3 |
| 20260506125215 | 52 | 256 | 0.0 | 0.0 | 0.00 | 0.00 | 0.00 | 99 | 1007.3 |
| 20260506124713 | 52 | 256 | 0.0 | 0.0 | 0.00 | 0.00 | 0.00 | 98 | 1007.3 |
| 20260506124211 | 52 | 256 | 0.0 | 0.0 | 0.00 | 0.00 | 0.00 | 98 | 1007.6 |
| 20260506123708 | 52 | 256 | 0.0 | 0.0 | 0.00 | 0.00 | 0.00 | 99 | 1007.6 |
| 20260506123207 | 52 | 256 | 0.0 | 0.0 | 0.00 | 0.00 | 0.00 | 98 | 1007.7 |
| 20260506122703 | 51 | 256 | 0.0 | 0.0 | 0.00 | 0.00 | 0.00 | 98 | 1007.6 |
| 20260506122201 | 51 | 256 | 0.0 | 0.0 | 0.00 | 0.00 | 0.00 | 98 | 1007.9 |
| 20260506121658 | 51 | 256 | 0.0 | 0.0 | 0.00 | 0.00 | 0.00 | 98 | 1007.7 |
| 20260506121154 | 51 | 256 | 0.0 | 0.0 | 0.00 | 0.00 | 0.00 | 98 | 1007.7 |
| 20260506120652 | 51 | 255 | 0.0 | 0.9 | 0.00 | 0.00 | 0.00 | 98 | 1008.1 |
| 20260506120149 | 51 | 256 | 0.0 | 0.0 | 0.00 | 0.00 | 0.00 | 98 | 1007.9 |
| 20260506115648 | 51 | 255 | 0.9 | 0.9 | 0.00 | 0.00 | 0.00 | 98 | 1008.0 |
| 20260506115146 | 51 | 252 | 1.7 | 1.7 | 0.00 | 0.00 | 0.00 | 98 | 1008.2 |
| 20260506114643 | 51 | 301 | 0.0 | 0.9 | 0.00 | 0.00 | 0.00 | 98 | 1007.9 |
| 20260506114140 | 51 | 263 | 0.9 | 0.9 | 0.00 | 0.00 | 0.00 | 98 | 1008.2 |
| 20260506113639 | 51 | 262 | 0.0 | 0.0 | 0.00 | 0.00 | 0.00 | 98 | 1008.0 |
| 20260506113136 | 51 | 262 | 0.0 | 0.9 | 0.00 | 0.00 | 0.00 | 98 | 1007.9 |
| 20260506112632 | 51 | 292 | 0.9 | 1.7 | 0.00 | 0.00 | 0.00 | 98 | 1007.9 |
| 20260506112129 | 51 | 274 | 0.0 | 1.7 | 0.00 | 0.00 | 0.00 | 98 | 1008.0 |
| 20260506111627 | 51 | 349 | 0.0 | 0.0 | 0.00 | 0.00 | 0.00 | 98 | 1007.7 |
| 20260506111125 | 51 | 349 | 0.0 | 0.0 | 0.00 | 0.00 | 0.00 | 98 | 1007.7 |
| 20260506110622 | 51 | 349 | 0.0 | 0.0 | 0.00 | 0.00 | 0.00 | 98 | 1007.9 |
| 20260506110119 | 51 | 349 | 0.0 | 0.0 | 0.00 | 0.00 | 0.00 | 98 | 1007.7 |
| 20260506105616 | 51 | 349 | 0.0 | 0.0 | 0.00 | 0.00 | 0.00 | 98 | 1007.6 |
| 20260506105113 | 51 | 349 | 0.0 | 0.0 | 0.00 | 0.00 | 0.00 | 98 | 1007.4 |
| 20260506104611 | 51 | 349 | 0.0 | 0.0 | 0.00 | 0.00 | 0.00 | 98 | 1007.5 |
| 20260506104108 | 51 | 349 | 0.0 | 0.0 | 0.00 | 0.00 | 0.00 | 98 | 1007.7 |
| 20260506103605 | 51 | 349 | 0.0 | 0.0 | 0.00 | 0.00 | 0.00 | 98 | 1007.6 |
| 20260506103102 | 51 | 349 | 0.9 | 0.9 | 0.00 | 0.00 | 0.00 | 98 | 1007.6 |
| 20260506102600 | 51 | 349 | 0.0 | 0.0 | 0.00 | 0.00 | 0.00 | 98 | 1007.7 |
| 20260506102057 | 51 | 21 | 1.7 | 1.7 | 0.00 | 0.00 | 0.00 | 98 | 1007.7 |
| 20260506101554 | 51 | 26 | 2.6 | 2.6 | 0.00 | 0.00 | 0.00 | 98 | 1007.6 |
| 20260506101051 | 51 | 233 | 0.9 | 0.9 | 0.00 | 0.00 | 0.00 | 98 | 1007.6 |
| 20260506100549 | 51 | 233 | 0.0 | 0.0 | 0.00 | 0.00 | 0.00 | 98 | 1007.7 |
| 20260506100047 | 51 | 233 | 0.0 | 0.9 | 0.00 | 0.00 | 0.00 | 98 | 1008.0 |
| 20260506095545 | 51 | 233 | 0.0 | 0.0 | 0.00 | 0.00 | 0.00 | 98 | 1007.7 |
| 20260506095041 | 50 | 233 | 0.0 | 0.0 | 0.00 | 0.00 | 0.00 | 98 | 1007.6 |
| 20260506094539 | 50 | 233 | 0.0 | 0.0 | 0.00 | 0.00 | 0.00 | 98 | 1007.6 |
| 20260506094037 | 50 | 233 | 0.0 | 0.0 | 0.00 | 0.00 | 0.00 | 98 | 1007.5 |
| 20260506093535 | 50 | 233 | 0.0 | 0.0 | 0.00 | 0.00 | 0.00 | 98 | 1007.7 |
| 20260506093032 | 50 | 233 | 0.0 | 0.0 | 0.00 | 0.00 | 0.00 | 97 | 1007.2 |
| 20260506092530 | 50 | 233 | 0.0 | 0.0 | 0.00 | 0.00 | 0.00 | 97 | 1007.5 |
| 20260506092026 | 50 | 233 | 0.0 | 0.0 | 0.00 | 0.00 | 0.00 | 97 | 1007.3 |
| 20260506091525 | 50 | 233 | 0.0 | 0.0 | 0.00 | 0.00 | 0.00 | 98 | 1007.4 |
| 20260506091022 | 50 | 233 | 0.0 | 0.0 | 0.00 | 0.00 | 0.00 | 98 | 1007.6 |
| 20260506090520 | 50 | 233 | 0.0 | 0.9 | 0.00 | 0.00 | 0.00 | 98 | 1007.5 |
| 20260506090016 | 51 | 233 | 0.0 | 0.9 | 0.00 | 0.00 | 0.00 | 98 | 1007.3 |
| 20260506085513 | 51 | 233 | 0.0 | 0.0 | 0.00 | 0.00 | 0.00 | 98 | 1007.7 |
| 20260506085009 | 50 | 233 | 0.0 | 0.9 | 0.00 | 0.00 | 0.00 | 98 | 1007.9 |
| 20260506084506 | 50 | 233 | 0.0 | 0.0 | 0.00 | 0.00 | 0.00 | 98 | 1007.6 |
| 20260506084002 | 50 | 233 | 0.0 | 0.0 | 0.00 | 0.00 | 0.00 | 97 | 1007.3 |
| 20260506083459 | 50 | 233 | 0.0 | 0.9 | 0.00 | 0.00 | 0.00 | 97 | 1007.7 |
| 20260506082956 | 50 | 233 | 0.0 | 0.9 | 0.00 | 0.00 | 0.00 | 97 | 1008.1 |
| 20260506082454 | 50 | 233 | 0.0 | 0.0 | 0.00 | 0.00 | 0.00 | 97 | 1008.1 |
| 20260506081949 | 50 | 233 | 0.0 | 0.0 | 0.00 | 0.00 | 0.00 | 97 | 1008.2 |
| 20260506081448 | 50 | 233 | 0.0 | 0.0 | 0.00 | 0.00 | 0.00 | 97 | 1007.9 |
| 20260506080945 | 51 | 233 | 0.0 | 0.0 | 0.00 | 0.00 | 0.00 | 97 | 1008.0 |
| 20260506080442 | 51 | 233 | 0.0 | 0.0 | 0.00 | 0.00 | 0.00 | 97 | 1008.2 |
| 20260506073426 | 51 | 233 | 0.0 | 0.0 | 0.00 | 0.00 | 0.00 | 97 | 1008.4 |
| 20260506072923 | 51 | 233 | 0.0 | 0.0 | 0.00 | 0.00 | 0.00 | 97 | 1008.6 |
| 20260506072420 | 51 | 233 | 0.0 | 0.0 | 0.00 | 0.00 | 0.00 | 97 | 1008.6 |
| 20260506071918 | 51 | 233 | 0.0 | 0.0 | 0.00 | 0.00 | 0.00 | 97 | 1008.8 |
| 20260506071416 | 51 | 233 | 0.0 | 0.0 | 0.00 | 0.00 | 0.00 | 97 | 1008.6 |
| 20260506070912 | 51 | 233 | 0.0 | 0.0 | 0.00 | 0.00 | 0.00 | 97 | 1008.6 |
| 20260506070409 | 51 | 233 | 0.0 | 0.0 | 0.00 | 0.00 | 0.00 | 96 | 1008.7 |
| 20260506062346 | 51 | 233 | 0.0 | 0.0 | 0.00 | 0.00 | 0.00 | 95 | 1008.7 |
| 20260506061842 | 52 | 233 | 0.0 | 0.0 | 0.00 | 0.00 | 0.00 | 95 | 1008.7 |
| 20260506061339 | 52 | 233 | 0.0 | 0.0 | 0.00 | 0.00 | 0.00 | 95 | 1008.9 |
| 20260506060837 | 52 | 233 | 0.0 | 0.0 | 0.00 | 0.00 | 0.00 | 95 | 1008.7 |
| 20260506060335 | 52 | 233 | 0.0 | 0.0 | 0.00 | 0.00 | 0.00 | 95 | 1008.9 |
| 20260506051307 | 53 | 233 | 0.0 | 0.0 | 0.00 | 0.00 | 0.00 | 96 | 1008.9 |
| 20260506050805 | 53 | 233 | 0.0 | 0.9 | 0.00 | 0.00 | 0.00 | 96 | 1008.7 |
| 20260506050302 | 53 | 233 | 0.0 | 0.0 | 0.00 | 0.00 | 0.00 | 96 | 1008.7 |
| 20260506044752 | 53 | 233 | 0.9 | 0.0 | 0.00 | 0.00 | 0.00 | 95 | 1009.4 |
| 20260506044250 | 53 | 233 | 0.0 | 0.0 | 0.00 | 0.00 | 0.00 | 94 | 1009.3 |
| 20260506043747 | 53 | 233 | 0.0 | 0.0 | 0.00 | 0.00 | 0.00 | 94 | 1009.2 |
| 20260506043244 | 53 | 233 | 0.0 | 0.9 | 0.00 | 0.00 | 0.00 | 94 | 1009.2 |
| 20260506042743 | 54 | 233 | 0.0 | 0.9 | 0.00 | 0.00 | 0.00 | 94 | 1009.3 |
| 20260506042241 | 54 | 233 | 0.9 | 0.9 | 0.00 | 0.00 | 0.00 | 93 | 1009.3 |
| 20260506041739 | 54 | 235 | 0.9 | 0.9 | 0.00 | 0.00 | 0.00 | 93 | 1009.3 |
| 20260506041236 | 54 | 235 | 0.9 | 0.9 | 0.00 | 0.00 | 0.00 | 94 | 1009.6 |
| 20260506040733 | 54 | 235 | 0.9 | 0.9 | 0.00 | 0.00 | 0.00 | 93 | 1009.6 |
| 20260506040230 | 55 | 249 | 0.0 | 0.9 | 0.00 | 0.00 | 0.00 | 94 | 1009.6 |
| 20260506035727 | 55 | 256 | 0.9 | 1.7 | 0.00 | 0.00 | 0.00 | 95 | 1009.9 |
| 20260506035224 | 55 | 252 | 0.0 | 0.0 | 0.00 | 0.00 | 0.00 | 95 | 1009.6 |
| 20260506034720 | 55 | 257 | 0.0 | 0.0 | 0.00 | 0.00 | 0.00 | 95 | 1009.5 |
| 20260506034218 | 55 | 265 | 0.0 | 0.0 | 0.00 | 0.00 | 0.00 | 96 | 1009.3 |
| 20260506033715 | 56 | 265 | 0.0 | 0.0 | 0.00 | 0.00 | 0.00 | 96 | 1009.3 |
| 20260506033212 | 56 | 265 | 0.0 | 0.0 | 0.00 | 0.00 | 0.00 | 97 | 1009.3 |
| 20260506032709 | 56 | 265 | 0.0 | 0.9 | 0.00 | 0.00 | 0.00 | 97 | 1009.3 |
| 20260506032206 | 56 | 265 | 0.9 | 0.9 | 0.00 | 0.00 | 0.00 | 97 | 1009.3 |
| 20260506031702 | 56 | 265 | 0.0 | 0.0 | 0.00 | 0.00 | 0.00 | 97 | 1009.3 |
| 20260506031200 | 57 | 265 | 0.0 | 0.0 | 0.00 | 0.00 | 0.00 | 98 | 1009.3 |
| 20260506030658 | 57 | 265 | 0.0 | 0.0 | 0.00 | 0.00 | 0.00 | 98 | 1009.4 |
| 20260506030155 | 57 | 265 | 0.0 | 0.9 | 0.00 | 0.00 | 0.00 | 98 | 1009.3 |
| 20260506025652 | 57 | 265 | 0.0 | 0.9 | 0.00 | 0.00 | 0.00 | 98 | 1009.3 |
| 20260506025148 | 57 | 276 | 0.0 | 0.0 | 0.00 | 0.00 | 0.00 | 98 | 1009.1 |
| 20260506024646 | 57 | 276 | 0.0 | 0.0 | 0.00 | 0.00 | 0.00 | 98 | 1009.2 |
| 20260506024142 | 57 | 276 | 0.0 | 0.0 | 0.00 | 0.00 | 0.00 | 98 | 1009.0 |
| 20260506023638 | 57 | 276 | 0.0 | 0.0 | 0.00 | 0.00 | 0.00 | 98 | 1009.2 |
| 20260506023135 | 57 | 279 | 0.0 | 0.0 | 0.00 | 0.00 | 0.00 | 98 | 1008.9 |
| 20260506022633 | 57 | 279 | 0.0 | 0.0 | 0.00 | 0.00 | 0.00 | 98 | 1009.0 |
| 20260506022130 | 57 | 279 | 0.0 | 0.0 | 0.00 | 0.00 | 0.00 | 98 | 1008.8 |
| 20260506021628 | 57 | 299 | 0.0 | 0.0 | 0.00 | 0.00 | 0.00 | 98 | 1009.0 |
| 20260506021125 | 57 | 299 | 0.0 | 0.0 | 0.00 | 0.00 | 0.00 | 98 | 1008.8 |
| 20260506020622 | 57 | 299 | 0.0 | 0.9 | 0.00 | 0.00 | 0.00 | 98 | 1008.7 |
| 20260506020119 | 57 | 257 | 0.0 | 0.0 | 0.00 | 0.00 | 0.00 | 98 | 1008.7 |
| 20260506015617 | 57 | 242 | 2.6 | 2.6 | 0.00 | 0.00 | 0.00 | 98 | 1008.7 |
| 20260506015114 | 57 | 269 | 0.0 | 0.0 | 0.00 | 0.00 | 0.00 | 97 | 1009.0 |
| 20260506014611 | 57 | 269 | 0.0 | 0.0 | 0.00 | 0.00 | 0.00 | 97 | 1008.5 |
| 20260506014106 | 57 | 269 | 0.0 | 0.0 | 0.00 | 0.00 | 0.00 | 97 | 1008.5 |
| 20260506013605 | 57 | 269 | 0.0 | 0.0 | 0.00 | 0.00 | 0.00 | 97 | 1008.4 |
| 20260506013101 | 57 | 269 | 0.0 | 0.0 | 0.00 | 0.00 | 0.00 | 97 | 1008.2 |
| 20260506012558 | 57 | 269 | 0.0 | 0.0 | 0.00 | 0.00 | 0.00 | 97 | 1008.1 |
| 20260506012054 | 57 | 269 | 0.0 | 0.0 | 0.00 | 0.00 | 0.00 | 97 | 1007.7 |
| 20260506011552 | 57 | 269 | 0.0 | 0.0 | 0.00 | 0.00 | 0.00 | 97 | 1007.7 |
| 20260506011048 | 58 | 269 | 0.0 | 0.0 | 0.00 | 0.00 | 0.00 | 97 | 1007.6 |
| 20260506010548 | 58 | 269 | 0.0 | 0.0 | 0.00 | 0.00 | 0.00 | 97 | 1007.4 |
| 20260506010044 | 58 | 269 | 0.0 | 0.0 | 0.00 | 0.00 | 0.00 | 97 | 1007.4 |
| 20260506005541 | 57 | 269 | 0.0 | 0.0 | 0.00 | 0.00 | 0.00 | 97 | 1007.4 |
| 20260506005037 | 57 | 269 | 0.0 | 0.0 | 0.00 | 0.00 | 0.00 | 97 | 1007.4 |
| 20260506004535 | 57 | 269 | 0.0 | 0.0 | 0.00 | 0.00 | 0.00 | 97 | 1007.2 |
| 20260506004031 | 57 | 269 | 0.0 | 0.0 | 0.00 | 0.00 | 0.00 | 97 | 1007.4 |
| 20260506003528 | 57 | 269 | 0.0 | 0.0 | 0.00 | 0.00 | 0.00 | 97 | 1007.6 |
| 20260506003024 | 57 | 269 | 0.0 | 0.0 | 0.00 | 0.00 | 0.00 | 96 | 1007.9 |
| 20260506002520 | 57 | 269 | 0.0 | 0.0 | 0.00 | 0.00 | 0.00 | 96 | 1007.7 |
| 20260506002015 | 57 | 269 | 0.0 | 0.0 | 0.00 | 0.00 | 0.00 | 96 | 1007.3 |
| 20260506001512 | 57 | 269 | 0.0 | 0.0 | 0.00 | 0.00 | 0.00 | 96 | 1007.0 |
| 20260506001009 | 57 | 269 | 0.0 | 0.0 | 0.00 | 0.00 | 0.00 | 96 | 1006.9 |
| 20260506000507 | 57 | 269 | 0.0 | 0.0 | 0.00 | 0.00 | 0.00 | 96 | 1007.1 |
| 20260506000004 | 58 | 269 | 0.0 | 0.0 | 0.00 | 0.00 | 0.00 | 96 | 1006.9 |
| 20260505235502 | 58 | 269 | 0.0 | 0.0 | 0.00 | 0.00 | 0.00 | 96 | 1006.9 |
| 20260505234958 | 58 | 269 | 0.0 | 0.0 | 0.00 | 0.00 | 0.00 | 96 | 1007.1 |
| 20260505234456 | 58 | 269 | 0.0 | 0.0 | 0.00 | 0.00 | 0.00 | 96 | 1007.0 |
| 20260505233952 | 59 | 269 | 0.0 | 0.0 | 0.00 | 0.00 | 0.00 | 96 | 1006.7 |
| 20260505233450 | 59 | 269 | 0.0 | 0.0 | 0.00 | 0.00 | 0.00 | 95 | 1006.7 |
| 20260505232947 | 59 | 269 | 0.0 | 0.0 | 0.00 | 0.00 | 0.00 | 95 | 1006.8 |
| 20260505232445 | 59 | 269 | 0.0 | 0.0 | 0.00 | 0.00 | 0.00 | 95 | 1006.6 |
| 20260505231942 | 59 | 269 | 0.0 | 0.0 | 0.00 | 0.00 | 0.00 | 95 | 1006.5 |
| 20260505231439 | 59 | 269 | 0.0 | 0.0 | 0.00 | 0.00 | 0.00 | 95 | 1006.4 |
| 20260505230937 | 59 | 269 | 0.0 | 0.0 | 0.00 | 0.00 | 0.00 | 95 | 1006.5 |
| 20260505230435 | 59 | 269 | 0.0 | 0.0 | 0.00 | 0.00 | 0.00 | 94 | 1006.3 |
| 20260505225931 | 59 | 269 | 0.0 | 0.0 | 0.00 | 0.00 | 0.00 | 94 | 1006.3 |
| 20260505225428 | 59 | 269 | 0.0 | 0.0 | 0.00 | 0.00 | 0.00 | 94 | 1006.3 |
| 20260505224924 | 59 | 269 | 0.0 | 0.0 | 0.00 | 0.00 | 0.00 | 94 | 1006.4 |
| 20260505224421 | 59 | 269 | 0.0 | 0.0 | 0.00 | 0.00 | 0.00 | 94 | 1006.5 |
| 20260505223918 | 59 | 269 | 0.0 | 0.0 | 0.00 | 0.00 | 0.00 | 94 | 1006.2 |
| 20260505223415 | 58 | 269 | 0.0 | 0.0 | 0.00 | 0.00 | 0.00 | 93 | 1006.2 |
| 20260505222911 | 59 | 269 | 0.0 | 0.0 | 0.00 | 0.00 | 0.00 | 93 | 1006.3 |
| 20260505222408 | 59 | 269 | 0.0 | 0.0 | 0.00 | 0.00 | 0.00 | 93 | 1006.5 |
| 20260505221904 | 59 | 269 | 0.0 | 0.0 | 0.00 | 0.00 | 0.00 | 93 | 1006.8 |
| 20260505221401 | 59 | 269 | 0.0 | 0.0 | 0.00 | 0.00 | 0.00 | 92 | 1006.7 |
| 20260505220858 | 59 | 269 | 0.9 | 0.9 | 0.00 | 0.00 | 0.00 | 91 | 1006.8 |
| 20260505220355 | 59 | 269 | 0.0 | 0.0 | 0.00 | 0.00 | 0.00 | 90 | 1007.0 |
| 20260505215853 | 59 | 300 | 1.7 | 1.7 | 0.00 | 0.00 | 0.00 | 89 | 1007.3 |
| 20260505215351 | 59 | 235 | 0.0 | 1.7 | 0.00 | 0.00 | 0.00 | 88 | 1007.5 |
| 20260505214849 | 59 | 274 | 1.7 | 2.6 | 0.00 | 0.00 | 0.00 | 87 | 1007.7 |
| 20260505214346 | 60 | 32 | 1.7 | 1.7 | 0.00 | 0.00 | 0.00 | 85 | 1007.9 |
| 20260505213843 | 61 | 300 | 0.9 | 0.9 | 0.00 | 0.00 | 0.00 | 81 | 1007.6 |
| 20260505213341 | 62 | 286 | 0.9 | 0.9 | 0.00 | 0.00 | 0.00 | 77 | 1007.3 |
| 20260505212836 | 63 | 252 | 3.5 | 5.2 | 0.00 | 0.00 | 0.00 | 72 | 1006.9 |
| 20260505212334 | 64 | 191 | 1.7 | 2.6 | 0.00 | 0.00 | 0.00 | 70 | 1006.5 |
| 20260505211829 | 64 | 30 | 1.7 | 2.6 | 0.00 | 0.00 | 0.00 | 66 | 1006.4 |
| 20260505211328 | 64 | 290 | 0.9 | 0.9 | 0.00 | 0.00 | 0.00 | 66 | 1005.9 |
| 20260505210824 | 64 | 277 | 1.7 | 5.2 | 0.00 | 0.00 | 0.00 | 67 | 1006.0 |
| 20260505210321 | 64 | 301 | 1.7 | 5.2 | 0.00 | 0.00 | 0.00 | 65 | 1006.2 |
| 20260505205818 | 65 | 295 | 5.2 | 12.2 | 0.00 | 0.00 | 0.00 | 63 | 1006.0 |
| 20260505205316 | 65 | 258 | 6.1 | 7.8 | 0.00 | 0.00 | 0.00 | 61 | 1005.9 |
| 20260505204812 | 66 | 307 | 4.3 | 8.7 | 0.00 | 0.00 | 0.00 | 60 | 1006.0 |
| 20260505204310 | 67 | 266 | 0.9 | 7.8 | 0.00 | 0.00 | 0.00 | 60 | 1006.1 |
| 20260505203807 | 68 | 293 | 3.5 | 7.0 | 0.00 | 0.00 | 0.00 | 59 | 1006.0 |
| 20260505203304 | 70 | 269 | 1.7 | 7.0 | 0.00 | 0.00 | 0.00 | 57 | 1005.9 |